| time (UTC) | temp F | wind direction | speed MPH | gust MPH | rain 1hr in | rain 24hr in | rain mn in | humidity % | barometer mb |
| 20260504050539 | 47 | 60 | 1.0 | 2.0 | 0.00 | 0.00 | 0.00 | 84 | 1017.7 |
| 20260504045541 | 47 | 0 | 1.0 | 2.0 | 0.00 | 0.00 | 0.00 | 83 | 1017.4 |
| 20260504045038 | 48 | 0 | 1.0 | 2.0 | 0.00 | 0.00 | 0.00 | 82 | 1017.4 |
| 20260504044548 | 48 | 94 | 0.0 | 2.0 | 0.00 | 0.00 | 0.00 | 82 | 1017.4 |
| 20260504044038 | 48 | 0 | 1.0 | 2.0 | 0.00 | 0.00 | 0.00 | 81 | 1017.4 |
| 20260504043539 | 48 | 95 | 0.0 | 2.0 | 0.00 | 0.00 | 0.00 | 81 | 1017.3 |
| 20260504043052 | 48 | 0 | 0.0 | 2.0 | 0.00 | 0.00 | 0.00 | 81 | 1017.3 |
| 20260504042544 | 48 | 0 | 0.0 | 3.0 | 0.00 | 0.00 | 0.00 | 81 | 1017.4 |
| 20260504042039 | 49 | 95 | 1.0 | 3.0 | 0.00 | 0.00 | 0.00 | 81 | 1017.3 |
| 20260504041552 | 49 | 60 | 0.0 | 3.0 | 0.00 | 0.00 | 0.00 | 81 | 1017.4 |
| 20260504041038 | 49 | 71 | 1.0 | 3.0 | 0.00 | 0.00 | 0.00 | 81 | 1017.3 |
| 20260504040539 | 49 | 20 | 0.0 | 2.0 | 0.00 | 0.00 | 0.00 | 80 | 1017.3 |
| 20260504040051 | 49 | 0 | 1.0 | 2.0 | 0.00 | 0.00 | 0.00 | 80 | 1017.2 |
| 20260504035538 | 50 | 74 | 1.0 | 3.0 | 0.00 | 0.00 | 0.00 | 80 | 1017.1 |
| 20260504035038 | 50 | 74 | 0.0 | 3.0 | 0.00 | 0.00 | 0.00 | 80 | 1017.2 |
| 20260504034545 | 50 | 55 | 0.0 | 3.0 | 0.00 | 0.00 | 0.00 | 80 | 1017.1 |
| 20260504034040 | 50 | 59 | 1.0 | 3.0 | 0.00 | 0.00 | 0.00 | 80 | 1016.9 |
| 20260504033540 | 50 | 49 | 1.0 | 3.0 | 0.00 | 0.00 | 0.00 | 80 | 1016.8 |
| 20260504033053 | 50 | 0 | 0.0 | 3.0 | 0.00 | 0.00 | 0.00 | 80 | 1016.7 |
| 20260504032539 | 50 | 109 | 1.0 | 3.0 | 0.00 | 0.00 | 0.00 | 80 | 1016.7 |
| 20260504032041 | 50 | 74 | 1.0 | 3.0 | 0.00 | 0.00 | 0.00 | 80 | 1016.7 |
| 20260504031552 | 50 | 90 | 1.0 | 2.0 | 0.00 | 0.00 | 0.00 | 78 | 1016.8 |
| 20260504031041 | 50 | 90 | 0.0 | 2.0 | 0.00 | 0.00 | 0.00 | 78 | 1016.9 |
| 20260504030539 | 50 | 90 | 1.0 | 2.0 | 0.00 | 0.00 | 0.00 | 78 | 1017.0 |
| 20260504030047 | 51 | 74 | 1.0 | 2.0 | 0.00 | 0.00 | 0.00 | 78 | 1017.0 |
| 20260504025538 | 51 | 99 | 1.0 | 2.0 | 0.00 | 0.00 | 0.00 | 77 | 1016.8 |
| 20260504025038 | 51 | 99 | 1.0 | 2.0 | 0.00 | 0.00 | 0.00 | 77 | 1016.9 |
| 20260504024550 | 51 | 96 | 1.0 | 2.0 | 0.00 | 0.00 | 0.00 | 76 | 1016.9 |
| 20260504024039 | 52 | 81 | 1.0 | 2.0 | 0.00 | 0.00 | 0.00 | 76 | 1016.9 |
| 20260504023539 | 52 | 73 | 1.0 | 2.0 | 0.00 | 0.00 | 0.00 | 76 | 1017.1 |
| 20260504023050 | 52 | 73 | 1.0 | 2.0 | 0.00 | 0.00 | 0.00 | 76 | 1017.1 |
| 20260504022538 | 53 | 73 | 1.0 | 2.0 | 0.00 | 0.00 | 0.00 | 76 | 1017.0 |
| 20260504022037 | 53 | 60 | 1.0 | 3.0 | 0.00 | 0.00 | 0.00 | 75 | 1016.9 |
| 20260504021553 | 53 | 0 | 0.0 | 3.0 | 0.00 | 0.00 | 0.00 | 75 | 1016.9 |
| 20260504021042 | 53 | 38 | 1.0 | 3.0 | 0.00 | 0.00 | 0.00 | 75 | 1016.9 |
| 20260504020538 | 54 | 22 | 2.0 | 3.0 | 0.00 | 0.00 | 0.00 | 75 | 1017.0 |
| 20260504020054 | 54 | 49 | 0.0 | 2.0 | 0.00 | 0.00 | 0.00 | 73 | 1016.8 |
| 20260504015541 | 54 | 49 | 0.0 | 2.0 | 0.00 | 0.00 | 0.00 | 72 | 1016.7 |
| 20260504015039 | 54 | 49 | 1.0 | 2.0 | 0.00 | 0.00 | 0.00 | 71 | 1016.7 |
| 20260504014553 | 54 | 49 | 0.0 | 1.0 | 0.00 | 0.00 | 0.00 | 69 | 1016.5 |
| 20260504014039 | 54 | 0 | 0.0 | 2.0 | 0.00 | 0.00 | 0.00 | 68 | 1016.5 |
| 20260504013538 | 54 | 0 | 0.0 | 2.0 | 0.00 | 0.00 | 0.00 | 67 | 1016.5 |
| 20260504013052 | 54 | 49 | 1.0 | 2.0 | 0.00 | 0.00 | 0.00 | 67 | 1016.5 |
| 20260504012539 | 55 | 49 | 0.0 | 2.0 | 0.00 | 0.00 | 0.00 | 67 | 1016.5 |
| 20260504012040 | 55 | 49 | 1.0 | 2.0 | 0.00 | 0.00 | 0.00 | 66 | 1016.5 |
| 20260504011547 | 55 | 49 | 0.0 | 2.0 | 0.00 | 0.00 | 0.00 | 65 | 1016.5 |
| 20260504011038 | 55 | 0 | 1.0 | 2.0 | 0.00 | 0.00 | 0.00 | 65 | 1016.5 |
| 20260504010537 | 56 | 49 | 1.0 | 2.0 | 0.00 | 0.00 | 0.00 | 64 | 1016.4 |
| 20260504010058 | 56 | 69 | 1.0 | 2.0 | 0.00 | 0.00 | 0.00 | 64 | 1016.5 |
| 20260504005538 | 56 | 0 | 0.0 | 2.0 | 0.00 | 0.00 | 0.00 | 62 | 1016.3 |
| 20260504005043 | 57 | 0 | 0.0 | 2.0 | 0.00 | 0.00 | 0.00 | 61 | 1016.3 |
| 20260504004555 | 57 | 69 | 1.0 | 2.0 | 0.00 | 0.00 | 0.00 | 60 | 1016.2 |
| 20260504004039 | 58 | 61 | 1.0 | 4.0 | 0.00 | 0.00 | 0.00 | 61 | 1016.2 |
| 20260504003538 | 58 | 0 | 2.0 | 4.0 | 0.00 | 0.00 | 0.00 | 61 | 1016.1 |
| 20260504003049 | 58 | 5 | 2.0 | 4.0 | 0.00 | 0.00 | 0.00 | 61 | 1016.1 |
| 20260504002538 | 59 | 355 | 2.0 | 4.0 | 0.00 | 0.00 | 0.00 | 61 | 1016.0 |
| 20260504002038 | 60 | 350 | 2.0 | 4.0 | 0.00 | 0.00 | 0.00 | 57 | 1016.0 |
| 20260504001548 | 60 | 355 | 2.0 | 3.0 | 0.00 | 0.00 | 0.00 | 56 | 1016.0 |
| 20260504001038 | 61 | 355 | 1.0 | 4.0 | 0.00 | 0.00 | 0.00 | 50 | 1016.0 |
| 20260504000539 | 61 | 355 | 2.0 | 5.0 | 0.00 | 0.00 | 0.00 | 51 | 1016.0 |
| 20260504000113 | 61 | 14 | 3.0 | 5.0 | 0.00 | 0.00 | 0.00 | 48 | 1016.0 |
| 20260503235540 | 62 | 352 | 2.0 | 9.0 | 0.00 | 0.00 | 0.00 | 47 | 1016.0 |
| 20260503235041 | 62 | 348 | 4.0 | 9.0 | 0.00 | 0.00 | 0.00 | 46 | 1016.0 |
| 20260503234553 | 63 | 355 | 3.0 | 9.0 | 0.00 | 0.00 | 0.00 | 46 | 1016.1 |
| 20260503234040 | 63 | 348 | 3.0 | 9.0 | 0.00 | 0.00 | 0.00 | 48 | 1016.0 |
| 20260503233541 | 63 | 26 | 4.0 | 10.0 | 0.00 | 0.00 | 0.00 | 45 | 1015.9 |
| 20260503233048 | 63 | 336 | 4.0 | 11.0 | 0.00 | 0.00 | 0.00 | 45 | 1015.9 |
| 20260503232540 | 63 | 352 | 6.0 | 12.0 | 0.00 | 0.00 | 0.00 | 44 | 1016.0 |
| 20260503232040 | 63 | 349 | 6.0 | 12.0 | 0.00 | 0.00 | 0.00 | 47 | 1016.0 |
| 20260503231548 | 63 | 335 | 7.0 | 12.0 | 0.00 | 0.00 | 0.00 | 44 | 1015.9 |
| 20260503231041 | 63 | 5 | 6.0 | 11.0 | 0.00 | 0.00 | 0.00 | 45 | 1015.9 |
| 20260503230542 | 63 | 5 | 6.0 | 11.0 | 0.00 | 0.00 | 0.00 | 44 | 1016.0 |
| 20260503230055 | 64 | 337 | 4.0 | 11.0 | 0.00 | 0.00 | 0.00 | 43 | 1016.0 |
| 20260503225540 | 64 | 333 | 6.0 | 11.0 | 0.00 | 0.00 | 0.00 | 42 | 1016.0 |
| 20260503225040 | 64 | 348 | 6.0 | 10.0 | 0.00 | 0.00 | 0.00 | 45 | 1015.9 |
| 20260503224548 | 64 | 352 | 7.0 | 10.0 | 0.00 | 0.00 | 0.00 | 41 | 1015.9 |
| 20260503224041 | 64 | 344 | 5.0 | 10.0 | 0.00 | 0.00 | 0.00 | 44 | 1015.9 |
| 20260503223540 | 64 | 49 | 5.0 | 12.0 | 0.00 | 0.00 | 0.00 | 42 | 1015.9 |
| 20260503223057 | 64 | 28 | 5.0 | 12.0 | 0.00 | 0.00 | 0.00 | 43 | 1015.7 |
| 20260503222539 | 64 | 11 | 4.0 | 11.0 | 0.00 | 0.00 | 0.00 | 42 | 1015.9 |
| 20260503222040 | 64 | 329 | 5.0 | 11.0 | 0.00 | 0.00 | 0.00 | 41 | 1015.9 |
| 20260503221546 | 64 | 348 | 6.0 | 11.0 | 0.00 | 0.00 | 0.00 | 42 | 1015.9 |
| 20260503221040 | 64 | 319 | 6.0 | 14.0 | 0.00 | 0.00 | 0.00 | 42 | 1015.9 |
| 20260503220540 | 64 | 320 | 5.0 | 14.0 | 0.00 | 0.00 | 0.00 | 41 | 1015.9 |
| 20260503220052 | 64 | 5 | 7.0 | 14.0 | 0.00 | 0.00 | 0.00 | 41 | 1016.0 |
| 20260503215540 | 64 | 307 | 6.0 | 13.0 | 0.00 | 0.00 | 0.00 | 44 | 1016.0 |
| 20260503215041 | 64 | 288 | 3.0 | 14.0 | 0.00 | 0.00 | 0.00 | 42 | 1016.0 |
| 20260503214550 | 64 | 360 | 6.0 | 14.0 | 0.00 | 0.00 | 0.00 | 42 | 1016.2 |
| 20260503214044 | 64 | 360 | 7.0 | 14.0 | 0.00 | 0.00 | 0.00 | 44 | 1016.1 |
| 20260503213541 | 64 | 44 | 8.0 | 15.0 | 0.00 | 0.00 | 0.00 | 42 | 1016.1 |
| 20260503213047 | 64 | 16 | 7.0 | 15.0 | 0.00 | 0.00 | 0.00 | 43 | 1016.0 |
| 20260503212540 | 64 | 350 | 7.0 | 14.0 | 0.00 | 0.00 | 0.00 | 43 | 1016.1 |
| 20260503212039 | 64 | 355 | 8.0 | 15.0 | 0.00 | 0.00 | 0.00 | 42 | 1016.1 |
| 20260503211548 | 64 | 31 | 8.0 | 15.0 | 0.00 | 0.00 | 0.00 | 41 | 1016.1 |
| 20260503211039 | 64 | 39 | 7.0 | 11.0 | 0.00 | 0.00 | 0.00 | 40 | 1016.2 |
| 20260503210540 | 64 | 38 | 5.0 | 13.0 | 0.00 | 0.00 | 0.00 | 40 | 1016.2 |
| 20260503210047 | 64 | 298 | 6.0 | 13.0 | 0.00 | 0.00 | 0.00 | 41 | 1016.3 |
| 20260503205539 | 64 | 284 | 7.0 | 13.0 | 0.00 | 0.00 | 0.00 | 42 | 1016.2 |
| 20260503205038 | 64 | 338 | 7.0 | 12.0 | 0.00 | 0.00 | 0.00 | 47 | 1016.2 |
| 20260503204545 | 64 | 252 | 4.0 | 10.0 | 0.00 | 0.00 | 0.00 | 48 | 1016.2 |
| 20260503204038 | 64 | 239 | 2.0 | 13.0 | 0.00 | 0.00 | 0.00 | 47 | 1016.2 |
| 20260503203538 | 64 | 263 | 8.0 | 13.0 | 0.00 | 0.00 | 0.00 | 51 | 1016.4 |
| 20260503203053 | 65 | 265 | 7.0 | 13.0 | 0.00 | 0.00 | 0.00 | 47 | 1016.4 |
| 20260503202538 | 64 | 97 | 1.0 | 3.0 | 0.00 | 0.00 | 0.00 | 46 | 1016.4 |
| 20260503202038 | 64 | 0 | 0.0 | 7.0 | 0.00 | 0.00 | 0.00 | 47 | 1016.6 |
| 20260503201546 | 64 | 0 | 2.0 | 10.0 | 0.00 | 0.00 | 0.00 | 47 | 1016.6 |
| 20260503201038 | 64 | 240 | 4.0 | 10.0 | 0.00 | 0.00 | 0.00 | 49 | 1016.7 |
| 20260503200539 | 64 | 237 | 3.0 | 10.0 | 0.00 | 0.00 | 0.00 | 50 | 1016.8 |
| 20260503200056 | 63 | 217 | 5.0 | 11.0 | 0.00 | 0.00 | 0.00 | 47 | 1016.9 |
| 20260503195538 | 63 | 288 | 5.0 | 11.0 | 0.00 | 0.00 | 0.00 | 47 | 1016.9 |
| 20260503195038 | 63 | 281 | 6.0 | 11.0 | 0.00 | 0.00 | 0.00 | 50 | 1016.9 |
| 20260503194548 | 63 | 257 | 7.0 | 10.0 | 0.00 | 0.00 | 0.00 | 48 | 1017.0 |
| 20260503194039 | 64 | 304 | 4.0 | 8.0 | 0.00 | 0.00 | 0.00 | 46 | 1017.0 |
| 20260503193540 | 64 | 276 | 4.0 | 8.0 | 0.00 | 0.00 | 0.00 | 46 | 1017.1 |
| 20260503193049 | 64 | 84 | 3.0 | 8.0 | 0.00 | 0.00 | 0.00 | 46 | 1017.2 |
| 20260503192538 | 63 | 83 | 2.0 | 8.0 | 0.00 | 0.00 | 0.00 | 47 | 1017.2 |
| 20260503192039 | 63 | 276 | 2.0 | 8.0 | 0.00 | 0.00 | 0.00 | 48 | 1017.3 |
| 20260503191551 | 63 | 48 | 1.0 | 8.0 | 0.00 | 0.00 | 0.00 | 48 | 1017.4 |
| 20260503191038 | 62 | 337 | 2.0 | 4.0 | 0.00 | 0.00 | 0.00 | 47 | 1017.4 |
| 20260503190543 | 62 | 240 | 1.0 | 8.0 | 0.00 | 0.00 | 0.00 | 45 | 1017.5 |
| 20260503190048 | 62 | 0 | 3.0 | 10.0 | 0.00 | 0.00 | 0.00 | 47 | 1017.5 |
| 20260503185538 | 62 | 282 | 3.0 | 10.0 | 0.00 | 0.00 | 0.00 | 46 | 1017.5 |
| 20260503185041 | 62 | 256 | 3.0 | 12.0 | 0.00 | 0.00 | 0.00 | 48 | 1017.6 |
| 20260503184603 | 62 | 214 | 7.0 | 12.0 | 0.00 | 0.00 | 0.00 | 46 | 1017.7 |
| 20260503184038 | 62 | 217 | 4.0 | 8.0 | 0.00 | 0.00 | 0.00 | 48 | 1017.7 |
| 20260503183538 | 62 | 271 | 3.0 | 6.0 | 0.00 | 0.00 | 0.00 | 47 | 1017.7 |
| 20260503183052 | 62 | 338 | 1.0 | 6.0 | 0.00 | 0.00 | 0.00 | 47 | 1017.8 |
| 20260503182537 | 62 | 274 | 1.0 | 6.0 | 0.00 | 0.00 | 0.00 | 47 | 1017.8 |
| 20260503182040 | 62 | 269 | 2.0 | 9.0 | 0.00 | 0.00 | 0.00 | 47 | 1017.8 |
| 20260503181547 | 61 | 149 | 3.0 | 9.0 | 0.00 | 0.00 | 0.00 | 47 | 1017.9 |
| 20260503181038 | 61 | 0 | 3.0 | 9.0 | 0.00 | 0.00 | 0.00 | 47 | 1018.0 |
| 20260503180541 | 60 | 292 | 2.0 | 9.0 | 0.00 | 0.00 | 0.00 | 47 | 1018.0 |
| 20260503180100 | 60 | 268 | 5.0 | 9.0 | 0.00 | 0.00 | 0.00 | 47 | 1018.0 |
| 20260503175541 | 60 | 240 | 0.0 | 7.0 | 0.00 | 0.00 | 0.00 | 49 | 1018.0 |
| 20260503175038 | 59 | 254 | 3.0 | 8.0 | 0.00 | 0.00 | 0.00 | 46 | 1018.1 |
| 20260503174546 | 59 | 243 | 2.0 | 11.0 | 0.00 | 0.00 | 0.00 | 47 | 1018.2 |
| 20260503174041 | 59 | 222 | 6.0 | 11.0 | 0.00 | 0.00 | 0.00 | 48 | 1018.1 |
| 20260503173538 | 59 | 263 | 4.0 | 8.0 | 0.00 | 0.00 | 0.00 | 49 | 1018.2 |
| 20260503173056 | 58 | 275 | 3.0 | 8.0 | 0.00 | 0.00 | 0.00 | 49 | 1018.2 |
| 20260503172540 | 58 | 181 | 3.0 | 8.0 | 0.00 | 0.00 | 0.00 | 48 | 1018.5 |
| 20260503172038 | 57 | 261 | 4.0 | 10.0 | 0.00 | 0.00 | 0.00 | 49 | 1018.5 |
| 20260503171547 | 57 | 305 | 4.0 | 11.0 | 0.00 | 0.00 | 0.00 | 49 | 1018.5 |
| 20260503171038 | 57 | 248 | 4.0 | 12.0 | 0.00 | 0.00 | 0.00 | 50 | 1018.7 |
| 20260503170539 | 57 | 245 | 5.0 | 12.0 | 0.00 | 0.00 | 0.00 | 51 | 1018.7 |
| 20260503160107 | 55 | 218 | 5.0 | 9.0 | 0.00 | 0.00 | 0.00 | 60 | 1019.4 |
| 20260503150538 | 53 | 46 | 3.0 | 8.0 | 0.00 | 0.00 | 0.00 | 65 | 1019.7 |
| 20260503131041 | 47 | 291 | 3.0 | 5.0 | 0.00 | 0.00 | 0.00 | 84 | 1019.4 |
| 20260503130614 | 47 | 256 | 0.0 | 3.0 | 0.00 | 0.00 | 0.00 | 85 | 1019.4 |
| 20260503110540 | 41 | 83 | 0.0 | 5.0 | 0.00 | 0.00 | 0.00 | 89 | 1018.3 |
| 20260503081546 | 44 | 110 | 1.0 | 2.0 | 0.00 | 0.00 | 0.00 | 86 | 1016.9 |
| 20260503081043 | 44 | 109 | 1.0 | 2.0 | 0.00 | 0.00 | 0.00 | 85 | 1016.9 |
| 20260503080542 | 44 | 109 | 1.0 | 3.0 | 0.00 | 0.00 | 0.00 | 84 | 1017.1 |
| 20260503072542 | 46 | 9 | 2.0 | 4.0 | 0.00 | 0.00 | 0.00 | 83 | 1016.6 |
| 20260503072040 | 46 | 355 | 2.0 | 5.0 | 0.00 | 0.00 | 0.00 | 83 | 1016.6 |
| 20260503071552 | 46 | 327 | 3.0 | 5.0 | 0.00 | 0.00 | 0.00 | 81 | 1016.6 |
| 20260503071041 | 46 | 349 | 3.0 | 5.0 | 0.00 | 0.00 | 0.00 | 81 | 1016.5 |
| 20260503070542 | 46 | 329 | 3.0 | 5.0 | 0.00 | 0.00 | 0.00 | 81 | 1016.5 |